Home > Weather > Chichester > Past weeks

Flag for United Kingdom Past Weather in Chichester, England, United Kingdom — Yesterday and Last 2 Weeks

Now
67 °F

Mild.


Feels Like: 67 °F
Forecast: 52 / 62 °F
Wind: 12 mph from Northwest

Location: Thorney Island

Current Time: Jun 27, 2016 at 3:57:49 PM

Latest Report: Jun 27, 2016 at 2:00 PM


Visibility: 19 mi

Pressure: 30.08 "Hg

Humidity: 61%

Dew Point: 53 °F

Location of ChichesterLocation

Past Weather in Chichester — Graph

°F

Chichester Temperature Yesterday

Maximum temperature yesterday: 65 °F (at 1:00 PM)
Minimum temperature yesterday: 53 °F (at 4:00 AM)
Average temperature yesterday: 58 °F

High & Low Weather Summary for the Past Weeks

 TemperatureHumidityPressure
High69 °F (Jun 27, 1:00 PM)100% (Jun 22, 10:00 AM)30.27 "Hg (Jun 22, 10:00 AM)
Low52 °F (Jun 24, 5:00 AM)59% (Jun 27, 1:00 PM)29.38 "Hg (Jun 15, 3:00 AM)
Average60 °F88%29.89 "Hg
* Reported Jun 12 2:00 PM — Jun 27 2:00 PM, Chichester, Weather by CustomWeather, © 2016

Note: Actual official high and low records may vary slightly from our data, if they occured in-between our weather recording intervals... More about our weather records

Advertising

Chichester Weather History for the Previous 24 Hours

Scroll right to see more
 ConditionsComfort  
Time TempWeatherWind HumidityBarometerVisibility
2:00 PM
Mon, Jun 27
67 °FMild.12 mph61%30.08 "Hg19 mi
1:00 PM69 °FMild.13 mph59%30.08 "Hg22 mi
11:00 AM65 °FMild.13 mph77%30.08 "Hg22 mi
10:00 AM64 °FMild.13 mph84%30.06 "Hg19 mi
9:00 AM63 °FMild.12 mph87%30.05 "Hg19 mi
8:00 AM62 °FCool.9 mph90%30.04 "Hg12 mi
7:00 AM61 °FCool.8 mph93%30.03 "Hg13 mi
6:00 AM60 °FCool.10 mph93%30.02 "Hg12 mi
4:00 AM60 °FCool.10 mph96%30.01 "Hg9 mi
2:00 AM60 °FCool.10 mph99%30.02 "Hg11 mi
12:00 AM59 °FLight rain. Overcast.13 mph99%30.04 "Hg3 mi
10:00 PM
Sun, Jun 26
58 °FCool.13 mph98%30.07 "Hg4 mi
9:00 PM58 °FCool.10 mph94%30.08 "Hg13 mi
8:00 PM58 °FLight rain. Cloudy.16 mph91%30.08 "Hg9 mi
7:00 PM60 °FCool.14 mph86%30.08 "Hg12 mi
6:00 PM61 °FCool.15 mph82%30.08 "Hg22 mi
5:00 PM63 °FMild.16 mph78%30.09 "Hg22 mi
4:00 PM63 °FMild.17 mph76%30.10 "Hg22 mi
3:00 PM63 °FMild.17 mph70%30.10 "Hg28 mi
Weather by CustomWeather, © 2016

See weather overviewHow to use our weather pages